Home > Weather > San Marino > Past weeks

Flag for San Marino Past Weather in San Marino, San Marino — Yesterday and Last 2 Weeks

Now
81 °F

Sunny.


Feels Like: 83 °F
Forecast: 58 / 77 °F
Wind: 13 mph from East

Location: Rimini Airport

Current Time: Jun 29, 2016 at 4:37:09 PM

Latest Report: Jun 29, 2016 at 3:15 PM


Visibility: 10 mi

Pressure: 29.98 "Hg (27.79 "Hg at 666m altitude)

Humidity: 66%

Dew Point: 68 °F

Location of San MarinoLocation

Past Weather in San Marino — Graph

°F

San Marino Temperature Yesterday

Maximum temperature yesterday: 81 °F (at 3:45 PM)
Minimum temperature yesterday: 70 °F (at 10:45 PM)
Average temperature yesterday: 77 °F

High & Low Weather Summary for the Past Weeks

 TemperatureHumidityPressure
High84 °F (Jun 24, 11:15 AM)100% (Jun 14, 3:15 PM)30.18 "Hg (Jun 14, 3:15 PM)
Low59 °F (Jun 15, 4:45 AM)45% (Jun 15, 2:45 PM)29.53 "Hg (Jun 14, 8:15 PM)
Average73 °F79%29.93 "Hg
* Reported Jun 14 3:15 PM — Jun 29 3:15 PM, San Marino, Weather by CustomWeather, © 2016

Note: Actual official high and low records may vary slightly from our data, if they occured in-between our weather recording intervals... More about our weather records

Advertising

San Marino Weather History for the Previous 24 Hours

Scroll right to see more
 ConditionsComfort  
Time TempWeatherWind HumidityBarometerVisibility
3:15 PM
Wed, Jun 29
81 °FSunny.13 mph66%29.98 "Hg10 mi
2:45 PM81 °FSunny.13 mph62%29.98 "Hg10 mi
2:15 PM81 °FSunny.13 mph62%29.98 "Hg10 mi
1:15 PM81 °FSunny.13 mph66%30.01 "Hg10 mi
12:15 PM81 °FSunny.13 mph62%30.01 "Hg10 mi
11:45 AM81 °FSunny.10 mph62%30.01 "Hg10 mi
11:15 AM81 °FSunny.10 mph62%30.01 "Hg10 mi
10:15 AM81 °FSunny.7 mph58%30.01 "Hg10 mi
9:45 AM81 °FSunny.6 mph51%30.01 "Hg10 mi
9:15 AM79 °FSunny.3 mph58%30.01 "Hg10 mi
8:45 AM77 °FSunny.3 mph61%30.01 "Hg10 mi
8:15 AM75 °FSunny.1 mph65%30.01 "Hg10 mi
7:45 AM72 °FSunny.1 mph69%29.98 "Hg10 mi
7:15 AM70 °FSunny.1 mph78%29.98 "Hg10 mi
6:45 AM64 °FSunny.No wind88%29.98 "Hg10 mi
6:15 AM64 °FClear.No wind88%29.98 "Hg10 mi
5:45 AM63 °FClear.No wind94%29.98 "Hg10 mi
5:15 AM63 °FClear.No wind94%29.98 "Hg10 mi
4:45 AM63 °FClear.No wind94%29.98 "Hg10 mi
4:15 AM63 °FClear.No wind94%30.01 "Hg10 mi
3:15 AM64 °FClear.1 mph88%30.01 "Hg10 mi
2:15 AM66 °FClear.No wind83%30.01 "Hg10 mi
1:15 AM68 °FClear.1 mph83%30.01 "Hg10 mi
12:45 AM68 °FClear.1 mph78%30.01 "Hg10 mi
12:15 AM68 °FClear.1 mph78%30.01 "Hg10 mi
11:15 PM
Tue, Jun 28
70 °FClear.1 mph73%29.98 "Hg10 mi
10:45 PM70 °FClear.1 mph73%29.98 "Hg10 mi
10:15 PM75 °FClear.2 mph54%29.98 "Hg10 mi
9:45 PM75 °FSunny.2 mph54%29.98 "Hg10 mi
9:15 PM75 °FSunny.2 mph54%29.98 "Hg10 mi
8:45 PM79 °FSunny.3 mph54%29.98 "Hg10 mi
8:15 PM79 °FSunny.5 mph54%29.98 "Hg10 mi
7:15 PM79 °FSunny.9 mph54%29.98 "Hg10 mi
6:45 PM79 °FSunny.9 mph54%30.01 "Hg10 mi
6:15 PM79 °FSunny.9 mph54%30.01 "Hg10 mi
5:45 PM79 °FSunny.9 mph54%30.01 "Hg10 mi
5:15 PM79 °FSunny.8 mph54%30.01 "Hg10 mi
4:45 PM79 °FSunny.8 mph54%30.01 "Hg10 mi
4:15 PM79 °FSunny.8 mph58%30.04 "Hg10 mi
Weather by CustomWeather, © 2016

See weather overviewHow to use our weather pages